Tracking 20040 objects as of 19-Nov-2019
Live streaming from Space Station
objects crossing your sky now

AMC-5 (GE-5)

Track AMC-5 (GE-5) now!
AMC-5 (GE-5) is classified as:


NORAD ID: 25516
Int'l Code: 1998-063B
Perigee: 36,045.9 km
Apogee: 36,072.4 km
Inclination: 6.9 °
Period: 1,449.7 minutes
Semi major axis: 42430 km
RCS: 9.3322 m2 (large)
Launch date: October 28, 1998
Source: SOCIETE EUROPEENNE DES SATELLITES (SES)
Launch site: FRENCH GUIANA (FRGUI)

Broadband internet, business television; 16 Ku-band; CONUS
aabbcc
Your satellite tracking list
Your tracking list is empty




NASA's NSSDC Master Catalog

Two Line Element Set (TLE):
1 25516U 98063B   19322.20391660 -.00000189  00000-0  00000+0 0  9997
2 25516   6.9395  55.8826 0003130 291.3822  78.9751  0.99332473 76988
Source of the keplerian elements: AFSPC